| time (UTC) | temp C | wind direction | speed KPH | gust KPH | rain 1hr cm | rain 24hr cm | rain mn cm | humidity % | barometer mb |
| 20260902095603 | 30 | 29 | 3.2 | 9.7 | 0.00 | 0.00 | 0.00 | 46 | 1019.4 |
| 20260902095203 | 31 | 144 | 1.6 | 9.7 | 0.00 | 0.00 | 0.00 | 45 | 1019.3 |
| 20260902094803 | 31 | 255 | 1.6 | 3.2 | 0.00 | 0.00 | 0.00 | 44 | 1019.5 |
| 20260902094403 | 30 | 18 | 1.6 | 6.4 | 0.00 | 0.00 | 0.00 | 45 | 1019.4 |
| 20260902094215 | 30 | 25 | 3.2 | 6.4 | 0.00 | 0.00 | 0.00 | 45 | 1019.7 |
| 20260902093603 | 29 | 40 | 4.8 | 11.3 | 0.00 | 0.00 | 0.00 | 48 | 1019.6 |
| 20260902093203 | 29 | 43 | 4.8 | 11.3 | 0.00 | 0.00 | 0.00 | 48 | 1019.4 |
| 20260902092803 | 29 | 32 | 4.8 | 11.3 | 0.00 | 0.00 | 0.00 | 46 | 1019.5 |
| 20260902092403 | 28 | 19 | 4.8 | 8.0 | 0.00 | 0.00 | 0.00 | 47 | 1019.6 |
| 20260902092217 | 28 | 20 | 4.8 | 8.0 | 0.00 | 0.00 | 0.00 | 49 | 1019.5 |
| 20260902091603 | 28 | 5 | 4.8 | 11.3 | 0.00 | 0.00 | 0.00 | 48 | 1019.7 |
| 20260902091203 | 28 | 360 | 4.8 | 11.3 | 0.00 | 0.00 | 0.00 | 49 | 1019.6 |
| 20260902090803 | 28 | 22 | 4.8 | 11.3 | 0.00 | 0.00 | 0.00 | 48 | 1019.4 |
| 20260902090614 | 28 | 28 | 3.2 | 9.7 | 0.00 | 0.00 | 0.00 | 50 | 1019.6 |
| 20260902090004 | 28 | 16 | 4.8 | 9.7 | 0.00 | 0.00 | 0.00 | 48 | 1019.6 |
| 20260902085603 | 28 | 8 | 4.8 | 9.7 | 0.00 | 0.00 | 0.00 | 49 | 1019.7 |
| 20260902085203 | 28 | 11 | 4.8 | 9.7 | 0.00 | 0.00 | 0.00 | 49 | 1019.7 |
| 20260902084803 | 28 | 31 | 3.2 | 8.0 | 0.00 | 0.00 | 0.00 | 52 | 1019.5 |
| 20260902084403 | 28 | 27 | 4.8 | 11.3 | 0.00 | 0.00 | 0.00 | 51 | 1019.5 |
| 20260902084003 | 28 | 20 | 4.8 | 11.3 | 0.00 | 0.00 | 0.00 | 50 | 1019.6 |
| 20260902083603 | 28 | 17 | 4.8 | 9.7 | 0.00 | 0.00 | 0.00 | 51 | 1019.5 |
| 20260902083203 | 27 | 20 | 4.8 | 6.4 | 0.00 | 0.00 | 0.00 | 53 | 1019.4 |
| 20260902082803 | 27 | 14 | 4.8 | 9.7 | 0.00 | 0.00 | 0.00 | 50 | 1019.3 |
| 20260902082403 | 27 | 19 | 4.8 | 9.7 | 0.00 | 0.00 | 0.00 | 51 | 1019.4 |
| 20260902082003 | 27 | 23 | 4.8 | 9.7 | 0.00 | 0.00 | 0.00 | 53 | 1019.5 |
| 20260902081603 | 27 | 22 | 4.8 | 8.0 | 0.00 | 0.00 | 0.00 | 52 | 1019.3 |
| 20260902081203 | 27 | 18 | 4.8 | 11.3 | 0.00 | 0.00 | 0.00 | 54 | 1019.4 |
| 20260902080803 | 27 | 30 | 4.8 | 11.3 | 0.00 | 0.00 | 0.00 | 54 | 1019.3 |
| 20260902080403 | 27 | 27 | 4.8 | 9.7 | 0.00 | 0.00 | 0.00 | 51 | 1019.3 |
| 20260902080004 | 27 | 31 | 4.8 | 9.7 | 0.00 | 0.00 | 0.00 | 55 | 1019.4 |
| 20260902075603 | 27 | 36 | 4.8 | 12.9 | 0.00 | 0.00 | 0.00 | 55 | 1019.1 |
| 20260902075203 | 27 | 32 | 4.8 | 12.9 | 0.00 | 0.00 | 0.00 | 54 | 1019.3 |
| 20260902074803 | 27 | 28 | 4.8 | 12.9 | 0.00 | 0.00 | 0.00 | 53 | 1019.2 |
| 20260902074403 | 27 | 21 | 3.2 | 6.4 | 0.00 | 0.00 | 0.00 | 57 | 1019.3 |
| 20260902074003 | 26 | 13 | 4.8 | 6.4 | 0.00 | 0.00 | 0.00 | 55 | 1019.2 |
| 20260902073603 | 26 | 10 | 4.8 | 11.3 | 0.00 | 0.00 | 0.00 | 56 | 1019.1 |
| 20260902073203 | 26 | 9 | 4.8 | 11.3 | 0.00 | 0.00 | 0.00 | 57 | 1019.2 |
| 20260902072803 | 26 | 11 | 4.8 | 9.7 | 0.00 | 0.00 | 0.00 | 59 | 1019.0 |
| 20260902072403 | 26 | 11 | 4.8 | 9.7 | 0.00 | 0.00 | 0.00 | 58 | 1019.2 |
| 20260902072003 | 25 | 8 | 3.2 | 6.4 | 0.00 | 0.00 | 0.00 | 64 | 1019.2 |
| 20260902071812 | 25 | 7 | 3.2 | 6.4 | 0.00 | 0.00 | 0.00 | 64 | 1019.2 |
| 20260902071203 | 25 | 9 | 3.2 | 6.4 | 0.00 | 0.00 | 0.00 | 63 | 1019.1 |
| 20260902070803 | 25 | 12 | 3.2 | 6.4 | 0.00 | 0.00 | 0.00 | 64 | 1018.9 |
| 20260902070403 | 25 | 8 | 1.6 | 4.8 | 0.00 | 0.00 | 0.00 | 66 | 1019.1 |
| 20260902070005 | 25 | 4 | 1.6 | 4.8 | 0.00 | 0.00 | 0.00 | 66 | 1019.0 |
| 20260902065603 | 25 | 353 | 1.6 | 4.8 | 0.00 | 0.00 | 0.00 | 65 | 1019.0 |
| 20260902065203 | 25 | 327 | 1.6 | 3.2 | 0.00 | 0.00 | 0.00 | 66 | 1018.9 |
| 20260902064803 | 25 | 307 | 1.6 | 3.2 | 0.00 | 0.00 | 0.00 | 66 | 1019.0 |
| 20260902064618 | 25 | 299 | 1.6 | 3.2 | 0.00 | 0.00 | 0.00 | 66 | 1018.8 |
| 20260902064003 | 24 | 281 | 1.6 | 4.8 | 0.00 | 0.00 | 0.00 | 69 | 1019.0 |
| 20260902063603 | 24 | 294 | 1.6 | 4.8 | 0.00 | 0.00 | 0.00 | 70 | 1018.8 |
| 20260902063203 | 24 | 307 | 1.6 | 3.2 | 0.00 | 0.00 | 0.00 | 69 | 1018.8 |
| 20260902062803 | 23 | 305 | 1.6 | 4.8 | 0.00 | 0.00 | 0.00 | 69 | 1018.9 |
| 20260902062403 | 23 | 292 | 1.6 | 4.8 | 0.00 | 0.00 | 0.00 | 70 | 1018.8 |
| 20260902062003 | 23 | 292 | 0.0 | 3.2 | 0.00 | 0.00 | 0.00 | 69 | 1018.7 |
| 20260902061603 | 23 | 293 | 0.0 | 3.2 | 0.00 | 0.00 | 0.00 | 71 | 1018.7 |
| 20260902061203 | 23 | 335 | 0.0 | 1.6 | 0.00 | 0.00 | 0.00 | 71 | 1018.9 |
| 20260902060803 | 23 | 332 | 0.0 | 1.6 | 0.00 | 0.00 | 0.00 | 71 | 1018.7 |
| 20260902060403 | 22 | 332 | 0.0 | 1.6 | 0.00 | 0.00 | 0.00 | 72 | 1018.6 |
| 20260902060003 | 22 | 333 | 0.0 | 3.2 | 0.00 | 0.00 | 0.00 | 73 | 1018.7 |
| 20260902055603 | 22 | 336 | 0.0 | 3.2 | 0.00 | 0.00 | 0.00 | 74 | 1018.6 |
| 20260902055203 | 22 | 0 | 0.0 | 0.0 | 0.00 | 0.00 | 0.00 | 76 | 1018.6 |
| 20260902054803 | 21 | 0 | 0.0 | 0.0 | 0.00 | 0.00 | 0.00 | 76 | 1018.5 |
| 20260902054403 | 21 | 0 | 0.0 | 0.0 | 0.00 | 0.00 | 0.00 | 77 | 1018.4 |
| 20260902054003 | 20 | 0 | 0.0 | 0.0 | 0.00 | 0.00 | 0.00 | 80 | 1018.4 |
| 20260902053603 | 20 | 0 | 0.0 | 0.0 | 0.00 | 0.00 | 0.00 | 80 | 1018.5 |
| 20260902053203 | 20 | 0 | 0.0 | 0.0 | 0.00 | 0.00 | 0.00 | 80 | 1018.5 |
| 20260902052803 | 20 | 0 | 0.0 | 0.0 | 0.00 | 0.00 | 0.00 | 80 | 1018.5 |
| 20260902052403 | 20 | 0 | 0.0 | 0.0 | 0.00 | 0.00 | 0.00 | 80 | 1018.4 |
| 20260902052003 | 20 | 0 | 0.0 | 0.0 | 0.00 | 0.00 | 0.00 | 81 | 1018.5 |
| 20260902051603 | 20 | 0 | 0.0 | 0.0 | 0.00 | 0.00 | 0.00 | 81 | 1018.3 |
| 20260902051203 | 19 | 0 | 0.0 | 0.0 | 0.00 | 0.00 | 0.00 | 81 | 1018.4 |
| 20260902050803 | 19 | 0 | 0.0 | 0.0 | 0.00 | 0.00 | 0.00 | 82 | 1018.4 |
| 20260902050403 | 19 | 0 | 0.0 | 0.0 | 0.00 | 0.00 | 0.00 | 82 | 1018.2 |
| 20260902050005 | 19 | 297 | 0.0 | 1.6 | 0.00 | 0.00 | 0.00 | 82 | 1018.4 |
| 20260902045603 | 19 | 292 | 0.0 | 3.2 | 0.00 | 0.00 | 0.00 | 82 | 1018.2 |
| 20260902045415 | 19 | 291 | 0.0 | 3.2 | 0.00 | 0.00 | 0.00 | 81 | 1018.4 |
| 20260902044803 | 19 | 287 | 0.0 | 1.6 | 0.00 | 0.00 | 0.00 | 82 | 1018.3 |
| 20260902044403 | 19 | 286 | 0.0 | 1.6 | 0.00 | 0.00 | 0.00 | 82 | 1018.4 |
| 20260902044213 | 19 | 286 | 0.0 | 1.6 | 0.00 | 0.00 | 0.00 | 82 | 1018.4 |
| 20260902043817 | 19 | 0 | 0.0 | 0.0 | 0.00 | 0.00 | 0.00 | 82 | 1018.4 |
| 20260902043203 | 19 | 0 | 0.0 | 0.0 | 0.00 | 0.00 | 0.00 | 82 | 1018.3 |
| 20260902043016 | 19 | 0 | 0.0 | 0.0 | 0.00 | 0.00 | 0.00 | 82 | 1018.2 |
| 20260902042403 | 19 | 0 | 0.0 | 0.0 | 0.00 | 0.00 | 0.00 | 83 | 1018.2 |
| 20260902042003 | 18 | 0 | 0.0 | 0.0 | 0.00 | 0.00 | 0.00 | 83 | 1018.2 |
| 20260902041603 | 18 | 0 | 0.0 | 0.0 | 0.00 | 0.00 | 0.00 | 83 | 1018.1 |
| 20260902041203 | 18 | 0 | 0.0 | 0.0 | 0.00 | 0.00 | 0.00 | 84 | 1018.2 |
| 20260902040803 | 18 | 0 | 0.0 | 0.0 | 0.00 | 0.00 | 0.00 | 85 | 1018.2 |
| 20260902040403 | 18 | 0 | 0.0 | 0.0 | 0.00 | 0.00 | 0.00 | 86 | 1018.4 |
| 20260902040003 | 18 | 0 | 0.0 | 0.0 | 0.00 | 0.00 | 0.00 | 86 | 1018.3 |
| 20260902035816 | 18 | 0 | 0.0 | 0.0 | 0.00 | 0.00 | 0.00 | 85 | 1018.4 |
| 20260902035203 | 18 | 0 | 0.0 | 0.0 | 0.00 | 0.00 | 0.00 | 85 | 1018.3 |
| 20260902034803 | 18 | 0 | 0.0 | 0.0 | 0.00 | 0.00 | 0.00 | 86 | 1018.1 |
| 20260902034614 | 18 | 0 | 0.0 | 0.0 | 0.00 | 0.00 | 0.00 | 85 | 1018.2 |
| 20260902034003 | 18 | 0 | 0.0 | 0.0 | 0.00 | 0.00 | 0.00 | 84 | 1018.2 |
| 20260902033603 | 18 | 0 | 0.0 | 0.0 | 0.00 | 0.00 | 0.00 | 84 | 1018.2 |
| 20260902033203 | 18 | 0 | 0.0 | 0.0 | 0.00 | 0.00 | 0.00 | 84 | 1018.2 |
| 20260902033017 | 18 | 0 | 0.0 | 0.0 | 0.00 | 0.00 | 0.00 | 85 | 1018.1 |
| 20260902032616 | 18 | 0 | 0.0 | 0.0 | 0.00 | 0.00 | 0.00 | 85 | 1018.2 |
| 20260902032003 | 18 | 0 | 0.0 | 0.0 | 0.00 | 0.00 | 0.00 | 85 | 1018.2 |
| 20260902031603 | 18 | 0 | 0.0 | 0.0 | 0.00 | 0.00 | 0.00 | 85 | 1018.3 |
| 20260902031203 | 18 | 0 | 0.0 | 0.0 | 0.00 | 0.00 | 0.00 | 85 | 1018.2 |
| 20260902030803 | 18 | 0 | 0.0 | 0.0 | 0.00 | 0.00 | 0.00 | 85 | 1018.1 |
| 20260902030404 | 18 | 0 | 0.0 | 0.0 | 0.00 | 0.00 | 0.00 | 85 | 1018.3 |
| 20260902030003 | 18 | 0 | 0.0 | 0.0 | 0.00 | 0.00 | 0.00 | 85 | 1018.2 |
| 20260902025603 | 18 | 0 | 0.0 | 0.0 | 0.00 | 0.00 | 0.00 | 85 | 1018.0 |
| 20260902025203 | 18 | 0 | 0.0 | 0.0 | 0.00 | 0.00 | 0.00 | 85 | 1018.1 |
| 20260902024803 | 18 | 0 | 0.0 | 0.0 | 0.00 | 0.00 | 0.00 | 85 | 1018.2 |
| 20260902024615 | 18 | 0 | 0.0 | 0.0 | 0.00 | 0.00 | 0.00 | 85 | 1018.0 |
| 20260902024214 | 18 | 0 | 0.0 | 0.0 | 0.00 | 0.00 | 0.00 | 85 | 1018.2 |
| 20260902023814 | 18 | 0 | 0.0 | 0.0 | 0.00 | 0.00 | 0.00 | 85 | 1018.1 |
| 20260902023203 | 19 | 0 | 0.0 | 0.0 | 0.00 | 0.00 | 0.00 | 85 | 1018.2 |
| 20260902023012 | 19 | 0 | 0.0 | 0.0 | 0.00 | 0.00 | 0.00 | 84 | 1018.3 |
| 20260902022403 | 19 | 285 | 0.0 | 1.6 | 0.00 | 0.00 | 0.00 | 84 | 1018.1 |
| 20260902022003 | 19 | 285 | 0.0 | 1.6 | 0.00 | 0.00 | 0.00 | 84 | 1018.1 |
| 20260902021603 | 19 | 285 | 0.0 | 3.2 | 0.00 | 0.00 | 0.00 | 84 | 1018.0 |
| 20260902021203 | 19 | 278 | 0.0 | 3.2 | 0.00 | 0.00 | 0.00 | 84 | 1018.2 |
| 20260902021014 | 19 | 277 | 0.0 | 3.2 | 0.00 | 0.00 | 0.00 | 84 | 1018.3 |
| 20260902020403 | 19 | 274 | 0.0 | 3.2 | 0.00 | 0.00 | 0.00 | 84 | 1018.1 |
| 20260902020003 | 19 | 274 | 0.0 | 1.6 | 0.00 | 0.00 | 0.00 | 85 | 1018.2 |
| 20260902015603 | 19 | 274 | 0.0 | 1.6 | 0.00 | 0.00 | 0.00 | 85 | 1018.3 |
| 20260902015203 | 19 | 274 | 0.0 | 1.6 | 0.00 | 0.00 | 0.00 | 85 | 1018.1 |
| 20260902014803 | 19 | 274 | 0.0 | 1.6 | 0.00 | 0.00 | 0.00 | 84 | 1018.1 |
| 20260902014403 | 19 | 274 | 0.0 | 1.6 | 0.00 | 0.00 | 0.00 | 84 | 1018.1 |
| 20260902014003 | 19 | 274 | 0.0 | 1.6 | 0.00 | 0.00 | 0.00 | 84 | 1018.2 |
| 20260902013603 | 19 | 274 | 0.0 | 1.6 | 0.00 | 0.00 | 0.00 | 84 | 1018.1 |
| 20260902013203 | 19 | 274 | 0.0 | 1.6 | 0.00 | 0.00 | 0.00 | 83 | 1018.1 |
| 20260902012803 | 19 | 274 | 0.0 | 1.6 | 0.00 | 0.00 | 0.00 | 83 | 1018.3 |
| 20260902012403 | 19 | 274 | 0.0 | 3.2 | 0.00 | 0.00 | 0.00 | 83 | 1018.3 |
| 20260902012003 | 19 | 277 | 1.6 | 3.2 | 0.00 | 0.00 | 0.00 | 83 | 1018.1 |
| 20260902011603 | 19 | 279 | 0.0 | 3.2 | 0.00 | 0.00 | 0.00 | 83 | 1018.2 |
| 20260902011203 | 19 | 282 | 0.0 | 1.6 | 0.00 | 0.00 | 0.00 | 84 | 1018.1 |
| 20260902010803 | 19 | 282 | 0.0 | 1.6 | 0.00 | 0.00 | 0.00 | 84 | 1018.3 |
| 20260902010614 | 19 | 282 | 0.0 | 1.6 | 0.00 | 0.00 | 0.00 | 84 | 1018.2 |
| 20260902010003 | 19 | 0 | 0.0 | 0.0 | 0.00 | 0.00 | 0.00 | 84 | 1018.3 |
| 20260902005813 | 19 | 0 | 0.0 | 0.0 | 0.00 | 0.00 | 0.00 | 83 | 1018.1 |
| 20260902005203 | 19 | 283 | 0.0 | 1.6 | 0.00 | 0.00 | 0.00 | 83 | 1018.3 |
| 20260902005017 | 19 | 283 | 0.0 | 1.6 | 0.00 | 0.00 | 0.00 | 83 | 1018.2 |
| 20260902004403 | 19 | 283 | 0.0 | 1.6 | 0.00 | 0.00 | 0.00 | 82 | 1018.3 |
| 20260902004216 | 19 | 283 | 0.0 | 1.6 | 0.00 | 0.00 | 0.00 | 82 | 1018.4 |
| 20260902003603 | 19 | 282 | 0.0 | 1.6 | 0.00 | 0.00 | 0.00 | 82 | 1018.4 |
| 20260902003414 | 19 | 282 | 0.0 | 1.6 | 0.00 | 0.00 | 0.00 | 82 | 1018.3 |
| 20260902002803 | 19 | 0 | 0.0 | 0.0 | 0.00 | 0.00 | 0.00 | 82 | 1018.2 |
| 20260902002403 | 19 | 0 | 0.0 | 0.0 | 0.00 | 0.00 | 0.00 | 82 | 1018.3 |
| 20260902002003 | 19 | 0 | 0.0 | 0.0 | 0.00 | 0.00 | 0.00 | 82 | 1018.4 |
| 20260902001603 | 19 | 0 | 0.0 | 0.0 | 0.00 | 0.00 | 0.00 | 82 | 1018.4 |
| 20260902001203 | 20 | 0 | 0.0 | 0.0 | 0.00 | 0.00 | 0.00 | 81 | 1018.3 |
| 20260902000803 | 20 | 283 | 0.0 | 1.6 | 0.00 | 0.00 | 0.00 | 81 | 1018.3 |
| 20260902000615 | 20 | 283 | 0.0 | 1.6 | 0.00 | 0.00 | 0.00 | 81 | 1018.2 |
| 20260902000003 | 20 | 0 | 0.0 | 0.0 | 0.00 | 0.00 | 0.00 | 81 | 1018.4 |
| 20260901235603 | 20 | 283 | 0.0 | 1.6 | 0.00 | 0.00 | 0.00 | 80 | 1018.3 |
| 20260901235203 | 20 | 283 | 0.0 | 1.6 | 0.00 | 0.00 | 0.00 | 80 | 1018.3 |
| 20260901234803 | 20 | 283 | 0.0 | 3.2 | 0.00 | 0.00 | 0.00 | 79 | 1018.4 |
| 20260901234403 | 20 | 283 | 0.0 | 3.2 | 0.00 | 0.00 | 0.00 | 80 | 1018.3 |
| 20260901234003 | 20 | 284 | 0.0 | 3.2 | 0.00 | 0.00 | 0.00 | 81 | 1018.2 |
| 20260901233603 | 19 | 0 | 0.0 | 0.0 | 0.00 | 0.00 | 0.00 | 83 | 1018.5 |
| 20260901233203 | 19 | 0 | 0.0 | 0.0 | 0.00 | 0.00 | 0.00 | 84 | 1018.3 |
| 20260901232803 | 19 | 0 | 0.0 | 0.0 | 0.00 | 0.00 | 0.00 | 84 | 1018.2 |
| 20260901232403 | 19 | 0 | 0.0 | 0.0 | 0.00 | 0.00 | 0.00 | 84 | 1018.2 |
| 20260901232003 | 19 | 0 | 0.0 | 0.0 | 0.00 | 0.00 | 0.00 | 84 | 1018.3 |
| 20260901231604 | 19 | 0 | 0.0 | 0.0 | 0.00 | 0.00 | 0.00 | 83 | 1018.2 |
| 20260901231203 | 19 | 0 | 0.0 | 0.0 | 0.00 | 0.00 | 0.00 | 83 | 1018.1 |
| 20260901231016 | 20 | 0 | 0.0 | 0.0 | 0.00 | 0.00 | 0.00 | 83 | 1018.2 |
| 20260901230403 | 20 | 0 | 0.0 | 0.0 | 0.00 | 0.00 | 0.00 | 82 | 1018.1 |
| 20260901230004 | 20 | 0 | 0.0 | 0.0 | 0.00 | 0.00 | 0.00 | 82 | 1018.0 |
| 20260901225603 | 20 | 0 | 0.0 | 0.0 | 0.00 | 0.00 | 0.00 | 82 | 1018.3 |
| 20260901225203 | 20 | 0 | 0.0 | 0.0 | 0.00 | 0.00 | 0.00 | 82 | 1018.1 |
| 20260901224803 | 20 | 0 | 0.0 | 0.0 | 0.00 | 0.00 | 0.00 | 82 | 1018.1 |
| 20260901224612 | 20 | 0 | 0.0 | 0.0 | 0.00 | 0.00 | 0.00 | 82 | 1018.2 |
| 20260901224003 | 20 | 0 | 0.0 | 0.0 | 0.00 | 0.00 | 0.00 | 82 | 1018.2 |
| 20260901223603 | 20 | 0 | 0.0 | 0.0 | 0.00 | 0.00 | 0.00 | 82 | 1018.1 |
| 20260901223203 | 20 | 0 | 0.0 | 0.0 | 0.00 | 0.00 | 0.00 | 82 | 1018.1 |
| 20260901222803 | 20 | 0 | 0.0 | 0.0 | 0.00 | 0.00 | 0.00 | 82 | 1018.2 |
| 20260901222403 | 20 | 0 | 0.0 | 0.0 | 0.00 | 0.00 | 0.00 | 81 | 1018.3 |
| 20260901222003 | 20 | 0 | 0.0 | 0.0 | 0.00 | 0.00 | 0.00 | 81 | 1018.2 |
| 20260901221603 | 20 | 0 | 0.0 | 0.0 | 0.00 | 0.00 | 0.00 | 81 | 1018.3 |
| 20260901221203 | 20 | 0 | 0.0 | 0.0 | 0.00 | 0.00 | 0.00 | 81 | 1018.2 |
| 20260901220804 | 21 | 0 | 0.0 | 0.0 | 0.00 | 0.00 | 0.00 | 78 | 1018.2 |
| 20260901220616 | 21 | 0 | 0.0 | 0.0 | 0.00 | 0.00 | 0.00 | 77 | 1018.2 |
| 20260901220004 | 21 | 0 | 0.0 | 0.0 | 0.00 | 0.00 | 0.00 | 77 | 1018.2 |
| 20260901215603 | 21 | 0 | 0.0 | 0.0 | 0.00 | 0.00 | 0.00 | 77 | 1018.2 |
| 20260901215203 | 20 | 0 | 0.0 | 0.0 | 0.00 | 0.00 | 0.00 | 79 | 1018.3 |
| 20260901214403 | 21 | 0 | 0.0 | 0.0 | 0.00 | 0.00 | 0.00 | 79 | 1018.2 |
| 20260901214003 | 21 | 0 | 0.0 | 0.0 | 0.00 | 0.00 | 0.00 | 78 | 1018.4 |
| 20260901213603 | 21 | 0 | 0.0 | 0.0 | 0.00 | 0.00 | 0.00 | 78 | 1018.1 |
| 20260901213416 | 21 | 0 | 0.0 | 0.0 | 0.00 | 0.00 | 0.00 | 78 | 1018.3 |
| 20260901213016 | 20 | 0 | 0.0 | 0.0 | 0.00 | 0.00 | 0.00 | 79 | 1018.2 |
| 20260901212403 | 21 | 0 | 0.0 | 0.0 | 0.00 | 0.00 | 0.00 | 80 | 1018.4 |
| 20260901212214 | 21 | 0 | 0.0 | 0.0 | 0.00 | 0.00 | 0.00 | 78 | 1018.2 |
| 20260901211603 | 20 | 0 | 0.0 | 0.0 | 0.00 | 0.00 | 0.00 | 78 | 1018.1 |
| 20260901211203 | 20 | 0 | 0.0 | 0.0 | 0.00 | 0.00 | 0.00 | 78 | 1018.1 |